| time (UTC) | temp C | wind direction | speed KPH | gust KPH | rain 1hr cm | rain 24hr cm | rain mn cm | humidity % | barometer mb |
| 20260906100042 | 20 | 0 | 0.0 | 0.0 | 0.00 | 0.00 | 0.00 | 88 | 1017.8 |
| 20260906094543 | 20 | 0 | 0.0 | 0.0 | 0.00 | 0.00 | 0.00 | 88 | 1017.8 |
| 20260906093049 | 20 | 0 | 0.0 | 0.0 | 0.00 | 0.00 | 0.00 | 88 | 1017.7 |
| 20260906091558 | 20 | 0 | 0.0 | 0.0 | 0.00 | 0.00 | 0.00 | 87 | 1017.6 |
| 20260906090045 | 20 | 0 | 0.0 | 0.0 | 0.00 | 0.00 | 0.00 | 87 | 1017.6 |
| 20260906084541 | 20 | 0 | 0.0 | 0.0 | 0.00 | 0.00 | 0.00 | 87 | 1017.7 |
| 20260906083050 | 20 | 0 | 0.0 | 0.0 | 0.00 | 0.00 | 0.00 | 88 | 1017.7 |
| 20260906081545 | 20 | 0 | 0.0 | 0.0 | 0.00 | 0.00 | 0.00 | 88 | 1017.6 |
| 20260906080046 | 20 | 0 | 0.0 | 1.6 | 0.00 | 0.00 | 0.00 | 88 | 1017.6 |
| 20260906074548 | 20 | 0 | 0.0 | 0.0 | 0.00 | 0.00 | 0.00 | 89 | 1017.5 |
| 20260906073040 | 20 | 0 | 0.0 | 0.0 | 0.00 | 0.00 | 0.00 | 89 | 1017.6 |
| 20260906071539 | 20 | 0 | 0.0 | 0.0 | 0.00 | 0.00 | 0.00 | 89 | 1017.4 |
| 20260906070042 | 21 | 0 | 0.0 | 0.0 | 0.00 | 0.00 | 0.00 | 89 | 1017.4 |
| 20260906064538 | 21 | 0 | 0.0 | 0.0 | 0.00 | 0.00 | 0.00 | 89 | 1017.5 |
| 20260906063047 | 21 | 0 | 0.0 | 0.0 | 0.00 | 0.00 | 0.00 | 89 | 1017.5 |
| 20260906061543 | 21 | 0 | 0.0 | 0.0 | 0.00 | 0.00 | 0.00 | 89 | 1017.5 |
| 20260906060042 | 21 | 0 | 0.0 | 0.0 | 0.00 | 0.00 | 0.00 | 89 | 1017.3 |
| 20260906054548 | 21 | 0 | 0.0 | 0.0 | 0.00 | 0.00 | 0.00 | 89 | 1017.2 |
| 20260906053058 | 21 | 0 | 0.0 | 0.0 | 0.00 | 0.00 | 0.00 | 89 | 1017.0 |
| 20260906051627 | 21 | 0 | 0.0 | 0.0 | 0.00 | 0.00 | 0.00 | 89 | 1017.1 |
| 20260906050052 | 21 | 0 | 0.0 | 0.0 | 0.00 | 0.00 | 0.00 | 88 | 1017.1 |
| 20260906044542 | 22 | 0 | 0.0 | 4.8 | 0.00 | 0.00 | 0.00 | 88 | 1016.7 |
| 20260906043043 | 22 | 0 | 0.0 | 3.2 | 0.00 | 0.00 | 0.00 | 88 | 1016.7 |
| 20260906041543 | 22 | 0 | 0.0 | 0.0 | 0.00 | 0.00 | 0.00 | 88 | 1016.7 |
| 20260906040045 | 22 | 0 | 0.0 | 0.0 | 0.00 | 0.00 | 0.00 | 87 | 1016.6 |
| 20260906034543 | 22 | 0 | 0.0 | 0.0 | 0.00 | 0.00 | 0.00 | 87 | 1016.7 |
| 20260906033047 | 22 | 0 | 0.0 | 0.0 | 0.00 | 0.00 | 0.00 | 87 | 1016.5 |
| 20260906031543 | 22 | 0 | 0.0 | 0.0 | 0.00 | 0.00 | 0.00 | 87 | 1016.4 |
| 20260906030048 | 22 | 0 | 0.0 | 3.2 | 0.00 | 0.00 | 0.00 | 88 | 1016.3 |
| 20260906024547 | 22 | 0 | 0.0 | 0.0 | 0.00 | 0.00 | 0.00 | 89 | 1016.3 |
| 20260906023051 | 22 | 0 | 0.0 | 0.0 | 0.00 | 0.00 | 0.00 | 89 | 1016.3 |
| 20260906021545 | 22 | 0 | 0.0 | 1.6 | 0.00 | 0.00 | 0.00 | 89 | 1016.3 |
| 20260906020056 | 22 | 0 | 0.0 | 0.0 | 0.00 | 0.00 | 0.00 | 89 | 1016.2 |
| 20260906014547 | 22 | 0 | 0.0 | 1.6 | 0.00 | 0.00 | 0.00 | 89 | 1016.0 |
| 20260906013051 | 22 | 0 | 0.0 | 8.0 | 0.00 | 0.00 | 0.00 | 89 | 1015.7 |
| 20260906011558 | 22 | 23 | 1.6 | 6.4 | 0.00 | 0.00 | 0.00 | 89 | 1015.6 |
| 20260906010045 | 22 | 0 | 0.0 | 4.8 | 0.00 | 0.00 | 0.00 | 88 | 1015.5 |
| 20260906004539 | 22 | 355 | 0.0 | 6.4 | 0.00 | 0.00 | 0.00 | 88 | 1015.5 |
| 20260906003046 | 22 | 333 | 0.0 | 4.8 | 0.00 | 0.00 | 0.00 | 88 | 1015.5 |
| 20260906001546 | 22 | 0 | 0.0 | 8.0 | 0.00 | 0.00 | 0.00 | 87 | 1015.4 |
| 20260906000053 | 22 | 0 | 1.6 | 8.0 | 0.00 | 0.00 | 0.00 | 87 | 1015.5 |
| 20260905234549 | 23 | 359 | 0.0 | 8.0 | 0.00 | 0.00 | 0.00 | 86 | 1015.3 |
| 20260905233046 | 23 | 0 | 0.0 | 8.0 | 0.00 | 0.00 | 0.00 | 86 | 1015.4 |
| 20260905231544 | 23 | 9 | 3.2 | 8.0 | 0.00 | 0.00 | 0.00 | 86 | 1015.3 |
| 20260905230044 | 23 | 0 | 1.6 | 8.0 | 0.00 | 0.00 | 0.00 | 85 | 1015.4 |
| 20260905224550 | 23 | 0 | 1.6 | 8.0 | 0.00 | 0.00 | 0.00 | 85 | 1015.3 |
| 20260905223044 | 23 | 313 | 1.6 | 11.3 | 0.00 | 0.00 | 0.00 | 85 | 1015.2 |
| 20260905221544 | 24 | 0 | 1.6 | 14.5 | 0.00 | 0.00 | 0.00 | 84 | 1015.1 |
| 20260905220048 | 24 | 2 | 4.8 | 16.1 | 0.00 | 0.00 | 0.00 | 83 | 1014.9 |
| 20260905214546 | 25 | 0 | 1.6 | 14.5 | 0.00 | 0.00 | 0.00 | 82 | 1014.7 |
| 20260905213044 | 25 | 30 | 3.2 | 11.3 | 0.00 | 0.00 | 0.00 | 80 | 1014.5 |
| 20260905211551 | 25 | 0 | 3.2 | 14.5 | 0.00 | 0.00 | 0.00 | 83 | 1014.4 |
| 20260905210044 | 25 | 27 | 4.8 | 11.3 | 0.00 | 0.00 | 0.00 | 81 | 1014.4 |
| 20260905204545 | 25 | 282 | 4.8 | 12.9 | 0.00 | 0.00 | 0.00 | 81 | 1014.3 |
| 20260905203041 | 25 | 0 | 3.2 | 11.3 | 0.00 | 0.00 | 0.00 | 80 | 1014.5 |
| 20260905201545 | 25 | 315 | 0.0 | 11.3 | 0.00 | 0.00 | 0.00 | 81 | 1014.6 |
| 20260905200044 | 25 | 347 | 4.8 | 11.3 | 0.00 | 0.00 | 0.00 | 80 | 1014.5 |
| 20260905194539 | 26 | 0 | 3.2 | 12.9 | 0.00 | 0.00 | 0.00 | 79 | 1014.5 |
| 20260905193043 | 27 | 338 | 1.6 | 12.9 | 0.00 | 0.00 | 0.00 | 76 | 1014.6 |
| 20260905191545 | 27 | 0 | 0.0 | 9.7 | 0.00 | 0.00 | 0.00 | 75 | 1014.6 |
| 20260905190043 | 27 | 18 | 3.2 | 11.3 | 0.00 | 0.00 | 0.00 | 73 | 1014.6 |
| 20260905184606 | 28 | 0 | 1.6 | 11.3 | 0.00 | 0.00 | 0.00 | 74 | 1014.7 |
| 20260905183050 | 28 | 0 | 1.6 | 11.3 | 0.00 | 0.00 | 0.00 | 72 | 1014.6 |
| 20260905181557 | 28 | 0 | 3.2 | 11.3 | 0.00 | 0.00 | 0.00 | 72 | 1014.7 |
| 20260905180049 | 28 | 0 | 0.0 | 8.0 | 0.00 | 0.00 | 0.00 | 72 | 1014.7 |
| 20260905174541 | 29 | 0 | 0.0 | 9.7 | 0.00 | 0.00 | 0.00 | 70 | 1014.7 |
| 20260905173046 | 28 | 0 | 0.0 | 8.0 | 0.00 | 0.00 | 0.00 | 72 | 1014.7 |
| 20260905171545 | 28 | 0 | 0.0 | 9.7 | 0.00 | 0.00 | 0.00 | 73 | 1014.7 |
| 20260905170041 | 28 | 333 | 1.6 | 8.0 | 0.00 | 0.00 | 0.00 | 75 | 1014.9 |
| 20260905164548 | 28 | 0 | 1.6 | 11.3 | 0.00 | 0.00 | 0.00 | 74 | 1015.0 |
| 20260905163044 | 28 | 0 | 0.0 | 0.0 | 0.00 | 0.00 | 0.00 | 76 | 1014.9 |
| 20260905161551 | 28 | 39 | 0.0 | 0.0 | 0.00 | 0.00 | 0.00 | 80 | 1015.1 |
| 20260905160051 | 28 | 0 | 0.0 | 3.2 | 0.00 | 0.00 | 0.00 | 81 | 1015.1 |
| 20260905154607 | 27 | 0 | 0.0 | 1.6 | 0.00 | 0.00 | 0.00 | 83 | 1014.9 |
| 20260905153041 | 27 | 0 | 0.0 | 4.8 | 0.00 | 0.00 | 0.00 | 85 | 1014.8 |
| 20260905151551 | 27 | 331 | 0.0 | 6.4 | 0.00 | 0.00 | 0.00 | 85 | 1014.8 |
| 20260905150047 | 27 | 0 | 0.0 | 8.0 | 0.00 | 0.00 | 0.00 | 85 | 1014.4 |
| 20260905144544 | 26 | 0 | 0.0 | 4.8 | 0.00 | 0.00 | 0.00 | 86 | 1014.3 |
| 20260905143044 | 27 | 0 | 0.0 | 1.6 | 0.00 | 0.00 | 0.00 | 88 | 1014.1 |
| 20260905141542 | 26 | 0 | 0.0 | 1.6 | 0.00 | 0.00 | 0.00 | 88 | 1014.5 |
| 20260905140048 | 25 | 0 | 0.0 | 0.0 | 0.00 | 0.00 | 0.00 | 86 | 1014.7 |
| 20260905134544 | 25 | 0 | 0.0 | 0.0 | 0.00 | 0.00 | 0.00 | 83 | 1014.6 |
| 20260905133048 | 25 | 0 | 0.0 | 0.0 | 0.00 | 0.00 | 0.00 | 81 | 1014.3 |
| 20260905131550 | 25 | 0 | 0.0 | 0.0 | 0.00 | 0.00 | 0.00 | 81 | 1014.2 |
| 20260905130049 | 25 | 0 | 0.0 | 0.0 | 0.00 | 0.00 | 0.00 | 81 | 1014.0 |
| 20260905124544 | 24 | 0 | 0.0 | 0.0 | 0.00 | 0.00 | 0.00 | 82 | 1013.9 |
| 20260905123045 | 24 | 0 | 0.0 | 0.0 | 0.00 | 0.00 | 0.00 | 81 | 1013.9 |
| 20260905121545 | 24 | 0 | 0.0 | 0.0 | 0.00 | 0.00 | 0.00 | 81 | 1013.7 |
| 20260905120048 | 24 | 0 | 0.0 | 0.0 | 0.00 | 0.00 | 0.00 | 82 | 1013.4 |
| 20260905114549 | 24 | 0 | 0.0 | 0.0 | 0.00 | 0.00 | 0.00 | 82 | 1013.4 |
| 20260905113049 | 24 | 0 | 0.0 | 0.0 | 0.00 | 0.00 | 0.00 | 83 | 1013.2 |
| 20260905111621 | 24 | 0 | 0.0 | 0.0 | 0.00 | 0.00 | 0.00 | 84 | 1013.0 |
| 20260905110043 | 24 | 0 | 0.0 | 0.0 | 0.00 | 0.00 | 0.00 | 85 | 1012.9 |
| 20260905104546 | 24 | 0 | 0.0 | 0.0 | 0.00 | 0.00 | 0.00 | 85 | 1012.9 |
| 20260905103043 | 24 | 0 | 0.0 | 0.0 | 0.00 | 0.00 | 0.00 | 86 | 1013.1 |
| 20260905101550 | 25 | 0 | 0.0 | 0.0 | 0.00 | 0.00 | 0.00 | 87 | 1013.1 |